Regional Weather Roundup
Issued by NWS Grand Forks, ND

Home | Current Version | Previous Version | Text Only | Print | Product List | Glossary Off
Versions: 1 2 3 4 5 6 7 8 9 10 11 12 13 14 15 16 17 18 19 20 21 22 23 24 25 26 27 28 29 30 31 32 33 34 35 36 37 38 39 40 41 42 43 44 45 46 47 48 49 50

000
ASUS43 KFGF 132131
RWRFGF
PRAIRIE TO PINES  WEATHER ROUNDUP
NATIONAL WEATHER SERVICE EASTERN NORTH DAKOTA/GRAND FORKS ND
400 PM CDT SUN JUN 13 2021

 **SATELLITE DATA USED TO AUGMENT SKY COVER AT AUTOMATED STATIONS**
 *****  WEATHER ACROSS EASTERN NORTH DAKOTA  *****

CITY           SKY/WX    TMP DP  RH WIND       PRES   REMARKS
GRAND FORKS    FAIR      83  45  26 NW16      30.00S
GRAND FRKS AFB FAIR      83  42  22 N15G21    30.01S
GRAND FRKS NWS   N/A     83  47  27 N6        29.95F
DEVILS LAKE    FAIR      80  42  25 N14G22    30.06F
FARGO          FAIR      82  53  36 N22G30    30.00R
WAHPETON ARPT  FAIR      84  46  26 N17       30.00R
$$

 ***** WEATHER ACROSS CENTRAL AND WESTERN NORTH DAKOTA  *****

CITY           SKY/WX    TMP DP  RH WIND       PRES   REMARKS
BISMARCK       FAIR      87  42  20 E8        30.09R
MINOT          FAIR      82  39  21 NW15G22   30.09F
JAMESTOWN      FAIR      85  42  22 N17G24    30.05R
MINOT AFB      FAIR      80  39  22 N12G21    30.08F
GARRISON         N/A     82  41  23 NE10G17   30.09F
WILLISTON      NOT AVBL
DICKINSON      FAIR      80  42  25 E12       30.12S
HETTINGER      FAIR      84  44  24 E9G21     30.13S
$$

 *****  OTHER AIRPORT OBSERVATIONS IN OUR AREA  *****

CITY           SKY/WX    TMP DP  RH WIND       PRES   REMARKS
WALHALLA       FAIR      82  82 100 N16G22    30.01F HX  97
GRAFTON AIRPOR FAIR      82  45  26 N14       30.02F
VALLEY CITY AR FAIR      82  45  26 N12G20    30.06R
CANDO          FAIR      82  50  32 N9G20     30.08S
CAVALIER APRT  FAIR      81  45  28 N15       30.00F
GWINNER        CLEAR     86  43  22 NW13G20   30.04S
SHEYENNE NWR     N/A     86  49  27 N7        29.95S
ROLLA          FAIR      79  41  25 NW18G25   30.09R
 ***** THE ABOVE OBSERVATIONS ARE NON NWS ARE NOT QUALITY
       CONTROLLED AND MAY MIS-REPORT RAIN FOR SNOW...
$$

  *****  WEATHER ACROSS NORTHERN MINNESOTA  *****

CITY           SKY/WX    TMP DP  RH WIND       PRES   REMARKS
FLAG ISLAND    FAIR      72  57  60 CALM      29.96S
WARROAD        FAIR      79  54  41 NW15G21   29.98S
ROSEAU         FAIR      81  43  26 NW18      29.99S
HALLOCK        FAIR      82  41  23 NW12G21   29.99F
THF RVR FALLS  FAIR      79  47  32 NW18G24   30.02S
BAUDETTE       FAIR      77  55  46 NW9       29.99S
WASKISH        FAIR      77  52  41 N7        29.98S
CROOKSTON      FAIR      81  41  24 N18G24    30.00S
STEPHEN NDAWN    N/A     82  45  26 MISG        N/A
GREENBUSH NDAW   N/A     81  46  30 MISG        N/A
$$
  *****  WEATHER ACROSS CENTRAL AND WEST MINNESOTA  *****

CITY           SKY/WX    TMP DP  RH WIND       PRES   REMARKS
FOSSTON        FAIR      79  45  29 N15G23    30.01S
BEMIDJI        FAIR      80  49  33 N15G29    29.99R
PARK RAPIDS    FAIR      85  46  25 NW21G29   29.96R
ELBOW LAKE     NOT AVBL
WADENA         FAIR      86  50  28 NW16G24   29.97R
DETROIT LAKES  FAIR      82  46  28 N18G28    30.00R
MOORHEAD       FAIR      84  39  20 N17       30.01R
FERGUS FALLS   FAIR      84  48  28 N16G24    29.98R
MORRIS MN      FAIR      91  37  15 NW20      29.99S
STAPLES        FAIR      90  43  19 NW18G26   29.95R
$$
  *****  WEATHER ELSEWHERE ACROSS MINNESOTA  *****

CITY           SKY/WX    TMP DP  RH WIND       PRES   REMARKS
DULUTH         FAIR      71  55  56 E16G25    29.94R
INTRNTL FALLS  FAIR      75  56  51 W6        29.97F
ELY            FAIR      64  55  72 CALM      29.96F
CLOQUET        FAIR      68  52  56 E13G26    29.92R
WHEATON        FAIR      88  41  19 NW14      30.01R
BRAINERD       FAIR      91  50  24 NW17G30   29.91S
HIBBING        FAIR      70  55  59 E9        29.97R
ALEXANDRIA     FAIR      88  52  29 NW23G29   29.99R
SAINT CLOUD    FAIR      94  51  23 W16G26    29.90F HX  91
MINNEAPOLIS    FAIR      95  47  19 W15G36    29.89F HX  91
$$

  *****  WEATHER ACROSS SOUTH DAKOTA  *****

CITY           SKY/WX    TMP DP  RH WIND       PRES   REMARKS
SIOUX FALLS    PTSUNNY   92  53  26 W8        30.04R
BROOKINGS      FAIR      88  60  38 W22G28    30.04S
WATERTOWN      FAIR      88  58  36 NW13      30.04S
HURON          LGT RAIN  75  64  68 NW8       30.03F
SISSETON         N/A     91  44  19 NW16G25   30.00S
ABERDEEN       FAIR      91  46  21 N9        30.03F
MITCHELL       FAIR      90  62  39 NW7       30.04F HX  90
PIERRE         FAIR      79  55  43 NE20      30.03S
MOBRIDGE       FAIR      91  46  21 VRB5      30.05F
RAPID CITY     FAIR      87  61  41 NE9       30.09F
$$

  *****  SOME WEATHER IN NEARBY STATES *****

CITY           SKY/WX    TMP DP  RH WIND       PRES   REMARKS
GLASGOW MT     FAIR      85  41  21 SE13G22   30.08F
GREAT FALLS MT FAIR      86  46  24 VRB5      30.02F
CHEYENNE WY    FAIR      83  56  39 SE9       30.21F
SCOTTSBLUFF NE FAIR      97  60  29 SE13G20   30.06F HX  97
OMAHA NE       FAIR      92  48  22 SW7       30.04F
DES MOINES IA  FAIR      92  50  23 W3        30.01F
DAVENPORT IA   FAIR      89  50  26 NW9       30.00F
CHICAGO IL     FAIR      86  51  29 E8        29.95F
EAU CLAIRE WI  FAIR      89  48  24 SW12G24   29.91F
LA CROSSE WI   FAIR      93  45  19 W7        29.94F
$$

  *****  SOME NATIONAL WEATHER *****

CITY           SKY/WX    TMP DP  RH WIND       PRES   REMARKS
LA GUARDIA NY  CLOUDY    69  55  60 S12       29.90F
RALEIGH NC     PTSUNNY   84  68  58 N3        29.88F
ATLANTA GA     PTSUNNY   87  66  49 SE7       29.88F
NEW ORLEANS LA PTSUNNY   96  72  45 VRB6      29.85F HX 104
OKLAHOMA CITY  PTSUNNY   88  72  58 E9        30.00S HX  94
ALBUQUERQUE NM FAIR      97  28   8 SE8       30.15F HX  91
SALT LAKE CITY FAIR     100  16   5 S18G26    29.94F HX  92
LOS ANGELES CA FAIR      69  58  67 W15       29.91F
BOISE ID       FAIR      93  48  21 N6        29.80F
SEATTLE WA     CLOUDY    62  58  86 W7        29.88S
$$

*** WEATHER ACROSS MANITOBA...SASKATCHEWAN AND ONTARIO ***
                ***ONTARIO***

CITY           SKY/WX    TMP DP  RH WIND       PRES   REMARKS
GERALDTON      LGT RAIN  59  55  88 W8        29.87R
THUNDER BAY    MOSUNNY   72  54  53 W13G18    29.90F
SIOUX LOOKOUT  PTSUNNY   73  52  46 NW9G17    29.90F
TORONTO        PTSUNNY   79  63  57 SE6       29.77F
BIG TROUT LK   PTSUNNY   63  52  67 NW6       29.82S
PICKLE LAKE    PTSUNNY   66  55  68 VRB3      29.86R
DRYDEN         PTSUNNY   68  52  56 W6        29.93F
KENORA         PTSUNNY   77  45  31 NW16G24   29.95F
$$
                *** MANITOBA***

CITY           SKY/WX    TMP DP  RH WIND       PRES   REMARKS
BRANDON        MOSUNNY   77  50  38 NW13G20   30.06F
DAUPHIN        SUNNY     81  45  28 W20       30.01S
ISLAND LAKE    NOT AVBL
PILOT MOUND      N/A     77  46  33 NW16G22     N/A
THE PAS        SUNNY     75  46  35 NW13G18   29.96R
THOMPSON       PTSUNNY   54  46  76 NW10G18   29.94R
WINNIPEG       MOSUNNY   81  43  26 NW14G31   29.99S
LYNN LAKE      PTSUNNY   59  48  67 W13G21    29.97R
CHURCHILL      PTSUNNY   43  36  75 NE14      30.03R
GILLAM         DRIZZLE   52  50  93 NE14      29.89R
$$
                ***SASKATCHEWAN***

CITY           SKY/WX    TMP DP  RH WIND       PRES   REMARKS
ESTEVAN        SUNNY     75  41  29 NW8G20    30.12F
KINDERSLEY     MOSUNNY   79  41  25 S17G25    30.02S
LLOYDMINSTER   MOSUNNY   77  45  31 S15G23    29.99F
PRINCE ALBERT  SUNNY     79  41  25 W12G18    30.05S
REGINA         MOSUNNY   77  45  31 W3        30.10F
YORKTON        SUNNY     77  39  25 NW13G20   30.06S
N. BATTLEFORD  SUNNY     79  43  27 S14       30.04F
LA RONGE       MOSUNNY   77  39  25 W8        29.98S
SASKATOON      MOSUNNY   79  36  21 W12       30.05F
SWIFT CURRENT  SUNNY     79  43  27 S10G18    30.06F
$$
NOTE: THESE ARE AUTOMATED STATIONS WITH LIMITED QUALITY CONTROL
      "FAIR" INDICATES FEW OR NO CLOUDS BELOW 12,000 FEET WITH NO
      SIGNIFICANT WEATHER AND/OR OBSTRUCTIONS TO VISIBILITY.
      SKY/WX - SKY CONDITION AND SIGNIFICANT WEATHER.
      TMP - AIR TEMPERATURE.    DP   - DEWPOINT TEMPERATURE.
      RH  - RELATIVE HUMIDITY.  PRES - PRESSURE.
      HX  - HEAT INDEX.         WCI  - WIND CHILL INDEX.
$



USA.gov is the U.S. government's official web portal to all federal, state and local government web resources and services.